{"data":{"norad_id":68649,"intl_designator":"2026-075P","name":"QIANFAN-122","alt_names":[],"object_type":"PAYLOAD","status":"ACTIVE","operator":null,"country":"PRC","launch_date":"2026-04-07","launch_site_code":"WSC","launch_vehicle":null,"mission":null,"orbit_class":"UNKNOWN","rcs_meters":null,"size_class":null,"mass_kg":null,"dimensions":null,"purposes":[],"wikipedia_slug":null,"has_3d_model":false,"image_url":null,"decayed_at":null,"tle_current":{"epoch":"2026-09-19T22:07:58.470528Z","epoch_age_seconds":113177,"freshness":"FRESH","line1":"1 68649U 26075P   26262.92220452  .00000044  00000+0  49536-4 0  9995","line2":"2 68649  88.9864 311.3230 0002126  87.7113 272.4282 13.51027391 22596","mean_motion":13.51027391,"eccentricity":0.0002126,"inclination_deg":88.9864,"raan_deg":311.323,"arg_perigee_deg":87.7113,"mean_anomaly_deg":272.4282,"bstar":4.9536e-5,"rev_number":2259,"period_min":106.58555182469,"perigee_km":1066.8977830893,"apogee_km":1070.0640850348,"semimajor_km":7446.617934062,"source":"CELESTRAK","updated_at":"2026-09-20T09:00:24.371668Z"}}}